Wind_Speed
20 20 19 18 16 14 13 12 13 15 20 24 25 26 26 27 26 24 23 21 20 20 19 19 19 18 17 17 17 17 17 17 17 17 17 17 18 18 18 18 18 18 18 17 17 17 18 18 17 18 19 19 20 20 20 19 20 22 23 25 27 28 30 31 30 28 25 23 23 22 22 23 24 25 26 28 29 30 30 31 32 34 35 36 37
21 22 21 20 17 15 12 12 13 15 20 24 24 25 26 26 25 24 22 21 20 20 19 18 18 17 17 17 16 16 16 16 15 15 16 16 16 17 17 17 16 16 16 16 16 15 16 16 16 17 18 17 17 17 18 19 19 20 22 23 25 26 27 28 29 29 27 25 23 20 19 18 18 20 21 23 24 25 26 27 28 29 30 31 31
23 24 24 22 20 17 13 11 13 16 20 23 24 25 27 27 26 24 22 20 19 19 18 17 17 16 16 16 16 16 15 15 15 14 14 15 15 15 15 15 15 14 14 14 14 14 14 14 14 15 16 16 16 16 16 17 18 19 20 21 23 24 25 25 26 27 27 26 24 21 18 16 14 13 15 17 18 20 21 22 23 25 26 27 28
24 26 26 25 23 19 14 12 14 18 22 24 25 26 27 27 26 24 22 20 19 18 18 17 16 15 15 15 15 15 15 14 14 13 13 13 14 14 14 13 13 13 12 12 12 12 13 13 12 13 14 14 15 15 14 15 16 17 18 19 21 22 22 23 24 24 25 25 25 24 22 18 15 12 11 10 11 12 14 17 18 20 21 23 24
26 27 28 28 25 21 16 14 15 19 23 24 25 26 27 27 26 24 22 20 19 18 17 16 16 15 15 14 14 14 13 13 12 12 12 12 12 12 12 12 12 12 11 10 11 11 12 11 11 11 11 12 13 13 13 14 15 15 16 17 19 20 21 21 22 23 24 25 25 26 26 24 20 17 14 13 11 10 9 10 12 15 17 19 20
26 29 30 29 27 24 19 15 16 20 24 24 24 25 26 26 26 25 22 21 19 18 17 16 16 15 14 13 13 12 11 11 11 10 10 10 10 10 10 10 10 10 9 9 10 10 10 10 10 10 9 10 11 11 12 13 13 13 14 15 17 19 20 20 21 22 24 25 27 28 29 28 26 22 19 16 14 11 8 7 8 10 12 14 16
27 29 30 29 29 27 22 16 17 21 23 24 24 25 27 27 26 25 23 21 19 18 17 16 15 14 13 13 12 11 10 10 10 10 9 9 9 8 8 8 7 7 8 8 9 9 9 9 9 9 8 8 9 10 10 11 11 12 12 14 15 17 18 19 21 22 24 26 28 29 30 30 29 26 23 19 16 13 8 6 8 11 12 12 13
28 30 30 30 30 28 24 20 20 23 25 25 26 27 28 28 26 25 23 21 20 19 17 16 15 14 14 13 12 11 10 10 10 9 9 8 8 7 7 7 6 6 6 6 7 7 8 8 8 8 7 7 8 8 9 10 10 10 11 12 13 15 17 19 20 22 23 26 27 29 30 31 30 28 25 22 17 14 11 8 9 12 14 14 14
29 31 31 29 30 29 26 23 23 26 28 27 28 29 29 28 27 25 24 23 21 20 18 17 15 14 14 13 12 11 10 10 9 9 8 7 7 7 6 6 6 5 5 5 5 6 6 7 7 6 6 7 7 8 8 9 9 10 11 11 12 14 15 17 19 21 23 24 26 28 29 30 31 29 26 23 18 14 13 11 11 13 15 16 15
28 30 31 29 30 31 29 26 26 30 30 29 29 30 30 30 29 27 26 24 22 21 19 18 16 15 14 13 11 10 10 9 9 8 7 7 6 6 6 6 5 5 4 4 4 4 4 4 4 4 5 5 6 7 8 9 10 11 11 12 12 13 15 17 18 20 22 24 25 26 28 30 31 30 26 23 19 13 13 12 10 12 16 17 15
26 28 30 30 30 32 31 30 29 32 33 32 32 32 32 32 31 29 27 25 24 23 21 19 17 15 14 13 11 10 9 9 8 7 7 6 6 5 5 5 4 4 3 3 2 2 2 2 2 2 3 4 5 7 8 10 11 12 13 13 14 14 15 16 18 19 21 22 24 25 27 29 30 30 27 24 20 14 11 12 11 12 17 18 16
26 27 28 30 31 33 33 31 31 33 35 35 34 34 34 33 32 30 29 27 26 24 21 19 17 15 13 12 11 10 9 9 8 7 6 6 5 4 4 3 3 2 2 2 1 1 1 1 1 1 1 2 5 7 10 12 13 13 14 14 14 15 16 17 18 19 20 21 22 24 26 28 29 30 28 25 21 16 12 11 12 13 17 18 17
27 29 29 30 31 32 33 32 32 35 37 35 34 34 34 33 31 30 29 27 25 23 21 18 16 14 13 12 11 10 9 9 8 8 7 6 6 5 4 4 3 3 2 2 2 2 1 1 2 2 4 6 8 10 12 13 14 14 15 15 15 16 17 17 18 18 19 20 21 22 24 26 28 29 29 27 23 18 14 12 12 13 15 17 17
27 30 31 32 31 32 33 32 33 36 38 36 34 34 34 33 31 29 28 27 24 22 20 19 17 15 14 13 12 11 10 9 9 8 7 7 7 7 6 5 5 5 5 5 4 4 4 4 3 5 7 9 11 13 13 14 14 15 16 15 16 17 18 18 19 19 19 20 21 22 22 24 26 28 29 28 25 21 17 14 13 14 16 17 18
25 29 31 32 32 33 34 33 34 37 39 38 36 36 35 33 31 29 29 28 26 23 21 20 19 17 16 15 13 13 12 11 11 10 9 10 9 8 8 7 8 7 7 7 6 6 7 7 7 8 10 11 13 13 13 13 14 15 16 17 17 18 18 19 19 20 20 20 21 22 22 23 24 25 27 28 28 24 20 17 16 16 17 19 20
22 25 28 30 31 32 36 36 37 39 41 40 39 38 37 35 33 31 31 30 28 25 23 21 20 20 19 18 17 16 15 14 13 13 13 12 11 10 10 10 10 10 9 9 9 9 10 10 11 12 13 13 14 14 14 14 14 15 16 18 18 18 19 20 20 20 21 21 21 22 23 23 23 24 25 27 27 26 23 21 19 18 19 21 23
21 24 28 27 28 31 36 38 39 42 43 42 41 39 38 37 34 32 31 31 29 26 23 22 22 21 19 18 18 18 18 17 16 16 16 15 13 13 13 13 13 13 12 11 11 12 12 12 13 14 15 15 16 16 16 16 16 16 17 19 19 19 20 20 21 22 22 22 23 23 23 24 24 24 25 26 27 27 26 23 21 20 21 23 26
23 26 27 26 27 31 35 39 41 44 44 43 42 40 38 36 33 31 31 30 28 25 24 23 23 21 19 18 17 17 18 18 18 18 17 16 15 15 15 14 14 14 14 14 14 14 15 15 16 16 17 17 17 18 18 18 18 17 18 19 20 21 21 21 22 23 23 24 24 25 25 25 25 26 26 26 27 28 27 26 24 23 23 25 27
25 26 27 27 28 31 35 39 42 43 44 43 42 41 39 36 33 32 32 30 28 27 26 25 24 23 21 19 17 17 17 18 19 19 18 17 17 17 16 14 14 14 15 15 16 16 16 17 17 18 18 18 18 18 19 20 20 19 19 20 21 22 22 22 23 24 25 25 26 26 26 26 27 27 27 27 27 28 28 28 27 26 26 27 29
26 24 25 28 29 30 33 38 41 43 43 43 42 41 39 37 35 34 33 32 31 30 28 27 25 24 22 19 18 18 18 19 20 20 20 19 18 17 16 15 16 16 16 16 16 16 16 18 19 19 19 19 19 20 21 21 22 22 21 21 22 23 24 24 24 25 26 27 27 28 28 28 28 28 29 28 28 29 29 29 29 29 29 30 31
27 25 26 29 30 30 32 36 39 40 40 41 41 41 40 38 37 37 36 35 35 34 31 29 27 26 24 22 21 20 21 21 21 22 21 20 19 18 17 18 18 18 17 17 16 16 17 19 20 20 20 20 21 22 22 23 23 23 23 23 23 24 25 26 26 26 27 29 29 29 30 30 30 30 30 31 31 31 31 31 31 31 31 32 33
28 26 26 28 29 30 31 34 37 37 37 39 40 40 40 40 40 39 38 38 37 35 33 31 30 29 28 27 25 24 24 23 23 23 22 21 21 20 21 21 21 20 19 19 18 18 19 20 22 23 23 23 23 24 25 25 25 25 25 25 24 25 26 28 28 29 29 30 31 31 31 32 32 32 32 33 33 33 34 34 34 34 34 34 35
31 29 27 25 27 30 31 33 37 37 36 37 38 40 41 41 41 40 39 39 38 36 34 32 31 31 30 30 29 28 27 26 26 26 25 24 24 25 25 25 23 22 22 22 21 21 21 21 23 24 26 26 27 27 28 28 27 27 27 27 27 27 28 29 30 31 31 32 33 33 34 34 34 34 34 34 35 35 36 36 36 37 37 37 38
35 33 32 28 27 31 33 35 37 38 37 37 37 39 40 41 41 40 40 39 37 36 34 33 33 32 32 32 32 32 30 29 29 28 27 28 28 28 28 27 26 25 25 25 24 24 24 24 24 26 28 29 29 30 31 31 30 29 29 30 30 30 30 31 33 34 34 35 35 35 36 36 36 36 35 36 36 36 37 38 38 39 40 41 41
40 39 38 34 31 32 35 37 38 39 39 38 38 38 39 39 39 39 39 38 36 35 34 34 34 33 34 35 35 34 33 32 31 30 30 30 30 31 30 29 29 28 28 28 28 27 27 27 27 28 30 31 32 32 33 34 33 32 32 32 32 32 32 33 34 36 37 37 38 38 38 38 38 38 37 37 38 38 38 39 40 40 41 43 44
45 43 42 39 36 35 37 40 42 42 41 40 40 39 39 39 39 39 38 37 36 36 36 35 35 35 36 37 36 35 35 33 32 31 32 32 33 33 32 31 31 32 32 31 31 31 31 31 31 32 33 33 34 35 36 36 36 35 34 34 34 35 35 36 37 38 40 40 41 41 41 41 41 40 40 39 40 40 40 41 42 43 43 44 46
48 46 43 41 40 38 39 41 43 44 44 44 43 43 42 41 41 40 40 39 38 38 37 37 36 36 38 38 38 37 36 34 33 33 34 35 35 35 34 34 34 34 35 34 35 34 34 34 35 35 36 36 37 37 38 38 38 37 37 36 37 37 38 38 39 41 42 43 44 44 44 44 44 43 43 42 42 43 43 44 44 45 46 46 48
50 48 45 44 42 40 39 40 42 44 45 46 45 45 44 44 43 42 41 41 40 39 39 39 38 38 40 40 38 37 36 35 35 36 36 37 37 37 37 37 37 37 37 37 37 37 37 38 38 38 38 38 39 39 40 40 40 39 39 39 39 40 40 41 42 43 45 46 47 47 47 47 47 45 45 45 45 45 46 47 48 48 49 49 50
50 48 47 45 44 42 40 38 39 41 43 44 45 44 44 44 43 42 42 41 40 39 40 39 38 39 40 39 37 36 36 36 35 36 37 37 38 39 39 39 40 40 40 40 40 40 40 40 40 40 40 40 40 41 41 42 42 41 41 41 42 42 43 44 45 46 48 49 50 49 49 50 50 49 48 48 48 49 50 51 51 52 52 52 53
50 49 49 48 45 42 40 39 39 40 41 43 43 44 44 43 42 42 42 41 41 41 41 40 39 40 40 38 36 36 36 36 37 37 38 38 39 40 41 41 42 42 42 42 41 42 42 42 42 42 42 42 42 42 43 44 44 44 44 44 45 46 46 47 48 49 50 51 52 52 52 53 53 54 53 51 51 53 53 54 55 56 55 55 55
54 52 52 50 48 45 43 42 42 41 41 42 43 43 44 44 44 44 43 43 43 42 42 42 41 41 40 39 38 38 38 38 39 39 40 40 41 42 43 43 44 44 43 43 43 44 44 44 43 43 43 44 44 44 45 46 46 46 47 47 48 49 50 50 51 52 52 53 54 55 56 56 57 58 57 56 56 56 57 57 58 59 58 57 57
57 56 55 53 51 49 47 47 46 45 45 44 43 44 44 45 45 45 44 44 44 44 43 43 42 42 41 41 41 41 41 41 42 42 43 43 43 44 44 45 46 46 45 45 46 46 46 45 45 45 45 46 47 48 48 49 49 49 49 50 51 52 53 53 54 55 56 56 57 58 59 60 61 61 61 60 60 59 60 60 60 61 61 59 57
56 57 57 55 54 51 50 50 49 48 48 47 46 46 46 46 45 44 44 44 44 44 43 43 43 43 43 43 43 43 43 44 44 44 44 44 45 45 46 47 47 47 47 47 47 47 47 47 47 48 48 49 50 51 51 51 52 52 52 53 54 55 56 57 58 59 59 60 60 61 62 63 63 64 64 63 62 62 62 62 61 62 62 60 57
56 57 57 56 55 54 53 52 51 50 49 49 48 48 47 46 45 45 45 45 44 44 44 44 44 45 45 44 44 44 44 44 44 44 45 46 46 47 47 48 48 48 48 49 49 49 49 50 50 50 51 52 53 54 54 55 55 55 55 56 57 58 59 60 61 61 61 62 63 63 64 64 64 65 65 64 62 62 61 61 60 60 60 58 55
55 56 56 56 56 56 55 53 53 52 51 50 50 49 48 47 47 47 47 46 46 46 46 46 46 46 46 46 46 46 46 45 45 46 47 48 49 49 49 49 50 50 51 51 51 52 52 52 53 54 55 56 57 57 58 59 59 59 59 58 59 60 61 62 62 62 62 62 62 62 62 62 62 62 63 62 60 59 59 58 56 56 55 53 50
52 54 55 56 56 56 55 55 54 54 53 52 51 50 49 49 49 49 49 48 48 48 48 48 49 49 48 48 48 48 48 48 48 49 50 51 52 52 51 51 52 52 53 53 54 54 55 55 56 57 58 59 60 60 61 61 61 61 60 59 58 58 58 59 59 59 59 59 59 59 59 59 59 59 60 61 57 55 56 55 52 50 49 47 44
46 50 52 54 55 56 56 55 55 55 55 54 53 52 51 51 50 51 50 50 50 50 50 51 51 50 50 50 50 50 51 51 52 53 54 54 54 54 54 54 55 55 56 57 57 57 57 58 58 58 59 59 59 59 59 59 59 59 58 56 54 53 53 54 55 56 56 56 56 57 57 57 58 57 58 59 55 51 51 51 48 45 42 39 34
42 44 47 49 52 54 55 55 55 55 55 55 54 53 52 52 52 52 52 52 52 53 53 53 53 53 53 53 53 54 54 54 55 56 57 57 56 56 57 57 57 57 57 57 57 57 56 56 56 56 55 55 54 54 55 55 56 56 55 53 52 50 49 49 51 53 54 54 55 56 56 57 57 56 57 58 55 50 47 47 44 39 34 30 24
39 39 41 43 46 48 49 50 51 52 52 52 52 52 51 51 51 51 51 52 53 53 53 53 53 53 54 54 54 54 54 54 55 55 55 55 55 55 55 55 54 54 54 53 53 52 52 52 51 51 50 50 50 50 50 51 52 52 53 52 51 49 47 47 48 49 51 52 54 55 56 57 56 55 55 57 56 50 45 42 39 33 27 23 20
38 38 39 40 40 40 41 41 42 42 42 43 43 43 44 44 44 44 45 45 45 45 45 46 46 47 47 48 48 48 49 49 49 49 49 49 49 49 49 49 48 48 48 48 48 47 47 47 47 47 47 47 48 48 47 48 49 50 50 50 49 49 47 45 44 45 47 50 51 53 54 56 55 52 51 54 54 48 43 38 34 30 26 23 22
38 39 40 39 38 38 36 35 35 34 33 32 32 33 34 34 35 36 36 36 36 36 37 38 38 39 40 41 41 41 42 42 43 43 43 44 44 44 44 44 44 44 44 45 45 44 44 45 45 45 45 46 46 47 47 48 48 48 48 48 47 47 46 44 42 42 45 47 49 50 51 53 54 51 48 50 49 44 40 35 31 28 27 27 28
41 41 41 40 40 39 37 36 34 32 31 30 31 31 31 32 33 33 33 33 33 34 34 35 36 36 37 38 39 39 39 39 39 40 41 41 42 42 42 42 43 43 43 43 43 43 43 43 43 44 44 45 45 45 46 47 49 48 48 47 46 45 45 43 41 41 44 46 47 48 47 49 51 50 46 45 44 40 35 29 25 26 29 34 38
45 44 44 43 42 41 40 38 36 34 34 33 33 33 34 34 35 35 35 35 35 35 36 36 37 37 37 38 38 38 39 39 39 40 40 41 41 42 42 42 42 42 41 41 42 43 42 42 43 43 43 44 44 45 45 48 51 52 52 50 48 46 45 43 41 41 44 46 47 46 45 45 47 46 44 42 40 36 31 25 24 29 33 35 38
49 48 47 46 45 43 42 41 39 39 38 37 36 37 37 37 38 39 38 38 38 38 39 39 39 38 38 39 39 40 40 41 41 41 41 42 43 43 42 42 42 42 41 41 41 42 42 43 43 43 44 44 45 45 46 48 52 55 55 55 53 51 48 45 42 43 45 47 47 44 41 41 42 42 41 41 38 34 32 32 34 35 34 33 34
53 51 50 48 46 45 45 44 44 43 42 41 40 40 40 40 41 41 40 40 41 41 41 41 41 41 41 41 41 41 42 43 43 43 43 44 45 44 44 44 44 43 43 43 43 43 43 43 44 45 46 46 46 47 48 50 53 56 57 58 58 56 53 48 45 46 49 49 46 41 37 38 38 36 37 39 40 39 41 42 42 39 37 38 41
55 55 53 51 49 49 48 48 48 47 46 45 45 44 44 44 44 43 43 43 43 43 44 44 44 44 44 44 44 45 45 46 46 46 46 47 47 47 46 47 47 46 46 46 46 46 46 46 47 47 48 49 49 50 50 52 54 57 59 60 60 60 58 53 48 49 53 51 46 41 37 33 32 34 40 47 51 53 53 50 47 44 43 47 50
58 58 57 55 53 53 53 52 52 51 50 50 49 48 48 47 47 47 46 46 46 46 46 47 47 47 47 47 48 49 49 49 49 49 49 50 50 50 49 50 50 50 50 50 50 49 49 49 50 50 50 51 51 52 53 54 55 57 59 61 62 63 62 59 54 54 56 53 48 43 38 36 38 45 52 55 54 54 51 47 44 44 45 48 51
61 61 61 59 57 56 55 55 55 54 54 53 52 52 51 51 50 50 50 49 50 50 50 50 50 50 50 51 51 52 53 53 53 52 52 52 53 53 52 53 53 54 54 53 53 53 52 52 52 52 53 53 53 54 55 56 56 57 60 61 62 62 64 62 60 59 58 55 52 48 46 48 53 56 57 53 48 44 43 40 38 39 42 43 46
65 64 64 63 61 59 57 57 57 57 57 56 55 55 54 54 54 53 53 53 53 53 53 53 53 53 54 54 55 55 56 56 56 56 56 55 55 56 55 56 56 56 56 56 56 56 57 56 55 56 56 55 55 56 57 58 58 59 61 63 63 63 63 63 63 63 60 57 56 54 53 57 59 55 49 45 42 40 39 39 40 40 39 38 41
68 68 67 66 64 62 60 59 59 59 59 58 58 57 56 56 56 56 56 56 56 56 56 56 56 57 57 58 58 58 59 59 59 59 59 58 58 58 58 58 59 59 59 59 59 60 60 60 59 59 59 59 59 59 60 61 61 61 63 65 65 65 65 64 66 65 61 58 59 57 56 59 57 50 46 46 48 48 45 42 42 42 38 39 43
71 71 70 69 68 66 64 63 62 61 61 61 60 60 59 59 59 59 59 59 60 60 60 60 60 60 61 61 61 61 62 62 62 61 61 61 61 61 61 61 61 61 61 61 62 62 63 63 62 62 62 62 63 63 63 64 65 66 66 67 68 68 67 67 69 67 61 58 58 56 55 55 51 47 51 55 56 56 53 47 44 43 43 46 50
Wind_Direction
220 211 204 195 185 183 186 192 196 196 190 182 179 176 170 170 171 174 177 177 176 175 173 168 163 161 157 152 150 146 145 144 144 144 139 134 128 124 120 116 115 113 111 108 105 101 98 97 95 88 83 78 74 71 69 64 57 55 55 55 56 57 56 56 56 56 55 54 53 55 59 63 69 73 77 78 78 77 77 75 72 72 72 70 67
226 217 210 199 188 186 187 190 194 196 192 185 180 176 171 171 173 175 178 178 178 178 178 174 168 165 161 155 153 150 148 148 149 149 146 141 136 131 125 121 118 115 113 110 107 103 98 96 94 90 85 80 76 71 70 66 58 53 52 51 52 53 53 53 52 51 50 48 47 46 48 53 58 63 68 70 73 74 73 72 71 69 68 65 62
228 222 215 206 192 189 190 191 193 194 194 188 180 176 173 173 174 176 179 179 179 179 179 177 172 169 165 160 157 155 153 152 151 150 148 145 141 136 131 126 123 118 113 109 105 103 98 95 93 90 86 81 76 69 65 64 57 51 48 48 48 50 50 49 48 47 45 43 40 38 36 35 38 46 53 57 60 64 68 70 69 68 66 62 58
230 224 220 212 197 189 192 196 194 190 192 190 182 177 175 175 175 177 179 178 178 180 181 180 176 173 170 165 162 160 157 156 154 150 146 144 142 139 136 131 127 121 114 108 103 100 98 97 95 89 83 79 73 65 61 62 57 49 45 44 44 45 44 44 43 42 40 36 33 31 28 24 18 13 13 18 26 38 51 61 63 63 61 58 54
231 226 221 217 203 190 192 200 193 187 190 190 184 179 176 175 177 177 178 177 179 181 181 180 178 177 175 171 167 164 162 159 156 152 146 143 142 139 136 132 127 122 116 108 103 99 97 96 93 88 80 74 72 66 60 60 57 48 41 39 40 39 38 36 35 35 33 30 26 24 22 20 16 8 357 348 343 347 10 36 49 52 51 50 47
235 232 224 221 209 192 188 198 195 188 190 191 185 180 176 177 179 178 177 178 179 180 181 181 180 179 178 174 170 166 164 161 158 155 151 146 143 141 137 132 127 121 115 108 103 98 95 93 88 82 73 68 67 64 59 57 55 48 37 32 33 34 31 29 27 27 27 24 21 20 20 18 16 12 4 354 344 336 335 354 15 24 28 31 31
235 235 227 224 216 197 184 192 197 191 190 189 185 180 179 181 182 179 178 178 179 181 182 182 181 179 177 175 171 167 164 164 162 159 155 151 146 141 137 131 126 118 111 106 101 95 89 86 81 74 65 59 59 57 55 52 49 43 32 26 27 28 26 23 22 23 22 20 19 18 18 17 16 13 8 359 349 339 327 325 346 354 353 355 1
232 234 228 226 221 203 184 187 196 192 189 189 185 182 182 184 183 180 178 178 180 182 183 183 181 179 177 175 170 166 163 162 163 162 158 153 148 142 136 131 124 117 110 103 97 91 84 79 74 66 54 46 45 45 44 41 35 31 27 25 25 23 21 19 19 19 18 17 17 16 16 16 14 12 10 4 354 342 329 310 313 330 333 331 332
230 230 227 226 224 209 187 184 194 192 188 188 186 184 184 185 185 182 180 180 182 182 183 184 184 181 179 177 172 168 165 162 162 162 159 157 153 146 141 136 130 123 116 108 97 89 82 77 70 58 46 37 29 27 27 26 21 18 17 17 18 19 17 15 15 16 15 15 15 14 13 14 13 12 10 7 1 349 341 328 306 309 319 319 317
228 227 226 224 224 214 193 183 191 192 188 187 187 187 186 186 187 185 183 183 182 184 186 188 187 185 183 180 177 171 168 164 162 160 160 159 155 150 146 144 139 136 128 119 108 94 86 80 70 56 45 35 24 18 16 15 13 9 7 5 7 10 11 10 11 12 12 12 12 11 10 11 12 13 12 10 7 358 350 347 325 312 320 320 312
228 226 225 222 222 216 200 186 188 190 189 188 189 188 188 189 189 187 186 186 186 186 188 190 192 191 189 185 182 178 173 171 167 165 164 163 160 155 149 148 144 144 140 134 128 114 103 96 79 64 49 34 21 9 2 360 358 357 357 357 358 1 4 5 7 8 8 8 9 8 8 8 10 12 12 11 10 4 353 350 342 330 332 331 322
229 225 223 219 219 217 205 191 186 189 191 190 190 189 190 192 192 190 190 190 190 190 191 193 196 197 196 195 192 190 187 185 182 179 180 181 179 176 168 164 163 167 171 174 173 176 158 157 171 198 319 340 342 341 340 340 342 343 346 350 353 356 359 1 3 3 3 3 4 6 5 6 8 10 11 9 9 7 358 348 345 341 340 341 339
230 225 222 219 219 219 212 196 188 189 192 192 192 191 193 194 195 195 195 195 194 194 193 195 199 202 204 206 206 207 206 204 201 199 201 205 208 208 208 211 216 224 237 243 246 254 259 233 227 252 282 302 315 323 328 332 335 337 340 344 348 351 354 356 358 359 359 358 359 1 2 3 4 7 9 8 6 5 1 349 342 341 343 344 343
233 226 224 223 222 223 218 203 191 190 191 192 193 194 195 197 198 199 200 200 199 197 196 198 202 206 210 214 219 222 224 225 225 224 221 226 230 228 227 233 241 248 256 261 267 274 285 290 288 289 297 306 314 320 325 328 332 334 337 341 345 348 350 352 353 354 354 354 354 356 357 359 0 2 6 7 5 1 358 351 342 338 339 339 339
237 230 226 225 225 226 224 210 195 191 190 191 194 196 197 198 200 202 202 203 203 202 201 202 205 209 214 219 223 228 235 238 241 245 244 244 245 245 245 245 250 252 255 260 266 275 285 291 297 302 305 310 316 320 323 326 328 331 334 337 340 345 347 348 349 348 348 349 350 352 353 354 356 357 360 4 5 2 356 349 342 337 335 335 336
237 236 231 226 225 227 226 214 198 193 192 192 194 196 198 199 201 203 203 203 205 205 205 206 208 211 215 219 222 228 235 240 246 251 253 255 258 260 259 257 258 259 259 260 265 271 277 284 292 298 303 308 312 315 317 319 323 326 328 331 335 339 343 345 345 345 344 344 345 347 348 348 349 351 353 357 1 2 359 353 344 339 336 335 335
230 235 235 228 225 225 224 213 199 194 194 193 194 196 198 200 201 202 202 203 206 207 207 208 209 210 213 217 222 227 232 236 241 246 252 259 264 266 266 266 266 264 265 265 267 269 272 278 285 291 298 303 305 307 309 312 316 320 322 324 328 332 337 339 340 340 340 339 340 341 343 343 343 345 347 349 352 355 357 356 351 344 339 335 334
226 232 234 229 224 222 219 211 200 196 195 193 193 194 197 200 202 203 203 204 207 209 209 209 210 211 213 217 221 226 231 234 237 241 248 254 259 262 265 268 269 270 272 273 273 274 276 280 284 290 296 300 301 302 303 306 309 313 317 319 321 325 330 333 335 335 335 335 335 336 337 338 338 339 342 344 345 347 349 350 350 348 344 339 336
226 227 230 228 223 219 215 209 201 198 197 195 193 193 196 199 201 202 203 204 207 210 213 215 218 219 221 224 227 232 235 237 237 240 243 247 251 254 257 263 269 272 275 278 279 281 284 287 290 295 299 300 301 301 301 303 304 306 310 313 316 319 323 327 330 330 331 331 331 332 333 334 334 335 336 338 339 341 341 342 343 344 344 343 340
225 224 228 228 223 217 214 210 204 201 199 197 195 195 197 199 200 201 202 204 207 212 216 220 224 226 227 229 233 237 240 241 240 239 240 242 245 247 251 258 263 266 270 275 280 285 289 293 295 297 300 301 301 300 300 300 301 303 305 309 311 313 316 320 323 325 326 327 327 328 329 330 330 331 332 333 333 335 335 336 336 338 339 340 340
224 223 228 229 224 217 213 211 208 204 202 201 199 199 199 200 203 204 205 206 210 213 217 220 223 226 226 229 234 238 240 241 240 239 238 239 240 243 247 252 258 263 268 272 277 284 289 292 296 297 299 300 299 299 298 297 300 302 303 305 307 309 311 314 317 319 320 322 323 324 324 325 326 327 328 329 329 330 331 331 332 334 335 336 336
218 218 224 230 227 219 213 211 211 209 207 206 205 204 203 204 206 208 210 211 214 217 220 222 224 224 225 229 234 238 238 239 239 237 235 235 237 240 245 250 256 263 269 273 277 281 284 287 291 293 295 297 297 295 295 296 299 301 301 303 304 305 307 309 311 314 315 317 318 319 320 321 321 323 324 324 325 326 327 328 329 330 331 331 332
215 215 218 224 227 221 213 210 211 211 211 210 210 210 209 210 211 213 215 217 220 223 225 227 229 229 230 233 236 237 238 237 236 233 232 232 236 240 244 249 255 261 268 273 277 280 282 284 286 289 291 292 292 293 294 295 298 299 300 300 302 303 304 305 307 309 311 313 314 315 316 317 317 318 319 320 321 321 323 324 325 326 326 326 327
213 214 213 214 219 220 214 211 211 212 213 212 213 214 215 216 217 219 221 223 225 228 230 231 233 234 235 237 238 238 237 236 235 231 231 233 237 241 245 250 256 262 267 271 275 279 282 284 285 287 288 289 290 291 292 294 295 297 298 299 301 302 302 303 304 306 308 309 310 311 312 314 315 315 316 317 317 318 319 319 320 322 322 322 322
211 212 211 209 211 213 212 211 211 212 214 215 215 216 217 218 220 222 224 225 227 229 231 233 235 236 237 238 238 238 238 237 235 233 234 237 240 244 247 251 257 262 267 270 273 276 280 283 285 286 287 288 289 290 290 291 293 295 297 299 300 300 301 302 302 303 305 306 307 308 309 311 312 312 313 314 315 315 316 316 317 318 319 319 319
212 213 212 209 208 208 208 209 209 210 213 215 217 218 218 219 221 222 224 225 227 228 230 232 233 234 236 237 237 238 239 238 237 236 238 240 243 245 248 252 257 262 266 270 273 275 279 282 285 287 287 287 287 288 289 290 292 294 295 297 298 299 299 300 300 301 303 304 305 306 307 308 309 310 310 311 312 313 313 313 314 315 315 316 316
215 215 214 213 211 210 210 210 209 210 211 214 216 218 219 220 221 223 224 226 227 229 230 231 231 233 235 236 236 238 239 239 238 238 240 242 244 247 250 254 258 262 266 270 273 277 280 282 285 287 287 286 286 286 287 289 290 293 294 295 296 297 298 299 300 300 301 302 302 303 304 305 306 307 308 309 310 310 310 310 311 311 312 313 314
216 216 215 216 215 214 214 213 213 213 213 214 216 217 219 220 222 223 225 227 229 230 232 232 231 233 236 237 237 240 242 242 241 242 244 246 248 251 255 258 262 265 269 272 275 278 280 283 285 286 286 285 285 285 286 287 289 291 292 293 294 295 296 297 298 299 299 300 300 302 303 303 304 305 306 307 308 308 308 308 308 309 309 310 311
218 219 219 218 218 217 217 217 217 218 219 219 220 221 222 223 224 226 227 229 230 232 233 235 234 235 238 239 240 243 245 245 246 247 249 251 253 256 259 261 264 268 271 273 276 278 279 281 282 283 283 283 283 284 285 286 288 290 291 292 293 294 295 296 297 297 298 298 299 300 301 302 303 304 305 306 306 306 306 306 306 307 307 308 309
217 221 222 221 220 220 219 220 221 222 222 223 224 225 225 226 227 228 230 231 232 233 235 236 236 237 239 241 242 244 245 247 248 249 251 253 255 258 260 262 265 267 270 272 275 276 277 278 280 280 281 281 282 283 284 285 287 289 290 291 292 293 294 295 295 296 296 297 298 299 300 301 302 303 304 304 304 304 304 304 304 304 305 306 307
215 218 220 219 219 220 219 220 221 222 223 224 225 227 227 228 229 229 230 232 234 235 237 238 238 239 241 242 243 244 245 248 249 250 252 253 255 258 260 263 266 268 270 273 274 275 276 277 278 278 279 281 282 283 284 285 287 288 289 290 291 292 293 294 294 294 294 295 296 297 299 299 300 301 302 302 302 302 302 302 302 302 302 303 305
217 219 220 219 219 219 219 220 221 222 223 224 226 227 228 229 229 231 232 233 235 237 239 240 242 242 243 244 245 246 247 249 251 252 253 255 257 260 263 265 268 270 272 273 273 274 276 277 277 278 280 281 282 283 284 285 287 288 289 290 291 292 292 292 293 293 293 294 295 296 296 297 298 298 299 300 300 300 300 299 299 299 300 302 304
218 220 221 221 221 221 221 222 223 223 225 225 227 229 230 231 232 234 235 236 237 239 241 242 244 245 245 246 247 248 249 251 253 255 257 259 261 263 265 267 269 271 272 273 274 275 276 277 278 279 280 281 282 283 284 286 287 288 289 290 291 291 291 291 292 292 293 293 293 294 294 294 295 296 297 298 298 298 298 298 299 299 300 303 305
218 219 221 221 221 222 222 223 225 226 227 227 229 231 233 234 235 236 238 239 239 240 242 243 244 246 247 248 249 250 251 253 256 258 260 262 263 264 265 267 269 270 271 273 274 275 276 277 279 280 281 282 283 284 285 286 287 287 288 289 289 289 290 290 290 291 291 291 291 292 292 293 293 294 295 296 296 297 297 298 299 300 302 304 305
219 219 221 222 222 223 223 224 225 227 228 229 230 232 234 236 237 239 240 241 243 244 245 246 247 248 250 251 253 254 256 257 258 260 261 262 263 264 265 267 268 270 271 273 274 275 277 278 279 280 281 282 283 284 284 285 285 286 287 287 288 288 289 289 289 289 290 290 291 291 292 292 293 294 294 294 296 297 298 299 301 302 303 305 306
218 220 221 222 224 224 224 225 226 228 229 230 231 233 234 236 238 240 242 243 245 247 248 250 251 252 254 255 257 258 259 260 260 261 262 262 264 265 267 268 270 271 272 273 274 276 277 278 279 280 281 282 283 283 283 284 285 286 286 287 287 288 288 289 289 289 290 290 291 291 292 292 292 293 293 294 296 298 299 301 303 304 306 306 305
218 220 221 223 224 225 226 227 227 229 230 232 233 234 235 237 239 241 243 244 246 248 250 252 253 255 256 257 259 260 260 261 261 262 263 264 266 267 268 269 270 271 272 273 274 275 276 277 278 279 280 282 282 283 284 285 285 286 286 286 287 287 288 289 289 290 290 291 292 292 292 292 293 293 294 295 298 300 301 302 305 307 306 303 305
217 218 220 222 224 226 228 229 230 231 232 233 234 235 236 238 240 242 244 245 246 248 250 252 254 255 257 257 259 260 261 262 263 264 264 265 266 267 268 269 270 271 272 273 274 275 276 277 278 279 280 281 282 283 284 285 286 287 287 287 287 287 287 288 289 291 292 292 293 293 293 293 294 295 297 297 299 302 302 304 306 306 301 300 310
217 217 218 221 223 225 227 230 231 233 234 235 236 237 238 239 241 243 245 246 248 249 251 252 254 255 256 257 258 259 260 262 263 264 265 266 266 267 268 269 270 271 273 274 275 276 278 279 279 280 280 280 281 282 283 284 286 287 288 289 289 288 288 288 289 292 293 293 293 293 294 294 295 297 298 298 299 302 303 304 305 300 293 297 311
217 219 220 220 222 224 225 227 229 231 233 235 236 236 237 238 240 242 244 245 246 248 250 251 253 255 256 257 258 259 260 261 262 264 266 267 268 269 270 271 273 274 275 276 277 278 279 279 280 280 281 281 281 282 283 283 284 285 287 288 288 289 288 288 289 291 291 292 292 293 294 295 295 297 297 296 299 302 303 304 301 291 286 293 300
217 218 220 222 223 225 224 225 226 227 228 231 233 235 236 237 238 240 242 244 246 248 249 251 252 255 257 258 259 260 262 263 263 265 266 268 270 271 272 273 274 275 276 276 277 278 279 279 280 281 281 282 282 283 284 284 284 285 286 287 287 288 288 289 290 291 290 291 291 292 294 296 297 297 297 297 298 300 301 302 295 284 282 287 289
220 219 219 221 224 226 226 226 226 227 229 232 234 237 239 240 241 242 244 245 247 249 251 253 254 255 257 258 259 260 261 262 263 265 266 267 269 270 271 272 273 274 275 275 277 278 278 279 280 281 282 283 283 285 287 288 288 288 288 288 289 289 290 291 293 292 291 291 290 291 294 296 298 299 299 297 297 298 300 299 289 279 279 285 289
222 222 221 221 223 226 228 229 229 230 233 234 236 237 238 240 242 242 243 244 246 247 249 251 253 254 255 256 257 258 259 261 262 264 266 267 268 268 269 270 270 271 272 273 275 276 277 278 279 280 282 283 284 287 289 290 291 291 292 293 293 293 294 295 295 294 292 290 289 291 293 295 297 299 298 295 294 294 293 291 287 282 281 288 297
220 221 222 222 224 227 229 231 233 234 236 237 239 240 240 242 243 243 244 244 246 248 249 251 253 254 256 257 258 259 261 262 263 264 266 267 268 268 269 270 271 271 272 274 275 276 278 279 280 281 282 283 284 287 289 289 289 290 292 294 296 297 298 298 298 296 293 291 291 291 293 296 298 297 292 289 289 289 288 291 296 291 285 291 305
216 218 220 221 223 226 229 231 234 236 238 239 241 243 244 245 246 247 248 249 250 251 253 254 256 257 258 260 262 263 264 266 267 268 269 269 270 271 272 273 274 275 276 277 277 278 280 281 282 282 283 283 285 287 287 287 287 288 290 293 295 297 298 299 300 297 294 293 293 293 295 297 295 290 287 288 290 291 289 292 296 292 283 285 297
216 217 219 220 222 226 228 231 234 237 239 241 242 244 245 247 249 250 251 253 254 255 256 258 259 260 262 263 265 267 268 269 270 271 272 273 274 276 276 277 278 279 279 280 280 281 283 283 283 284 284 286 287 287 287 286 286 287 289 291 293 295 297 299 299 297 295 294 294 295 294 290 284 286 290 292 291 289 287 288 290 289 283 282 288
220 218 220 222 225 227 229 231 234 236 239 241 243 244 246 248 249 251 252 254 255 257 258 260 261 263 264 265 267 269 270 271 272 273 274 275 277 278 278 279 280 280 281 282 283 284 284 284 284 285 286 287 287 287 287 287 286 287 288 289 290 292 295 297 298 297 295 294 295 295 288 278 281 290 295 296 294 291 290 289 289 290 288 285 286
227 224 224 226 229 231 232 234 236 237 239 241 243 245 246 248 249 251 252 254 256 257 259 261 262 264 265 267 268 270 271 272 273 274 275 276 277 278 279 279 280 280 281 282 283 284 284 285 285 285 286 286 287 287 287 287 287 288 288 288 289 290 291 294 295 295 294 294 295 294 288 284 289 295 298 300 300 296 294 294 296 298 296 292 291
234 232 231 230 232 233 235 237 239 240 241 242 243 245 247 249 250 252 253 255 256 257 259 261 263 264 266 267 268 270 271 273 274 275 276 277 278 278 279 279 280 281 282 283 283 284 285 285 286 287 287 288 288 288 288 289 289 289 288 289 289 289 289 291 291 292 293 294 294 293 290 289 292 295 298 301 300 295 293 296 300 302 300 296 295
237 237 237 236 235 236 238 239 241 242 243 244 245 246 248 250 251 252 253 255 256 258 259 261 263 264 265 267 268 270 271 273 274 275 276 277 278 279 279 280 281 281 282 283 284 285 286 286 287 288 289 290 290 290 289 289 289 289 289 289 289 289 288 287 287 288 290 292 292 291 289 289 290 293 296 296 293 291 291 294 297 298 297 297 298
237 238 240 240 240 240 240 241 242 244 245 246 247 248 249 250 251 252 254 255 256 258 260 261 263 264 266 267 269 270 271 273 274 275 276 277 278 279 279 280 281 281 282 284 285 286 286 287 288 289 290 290 290 291 291 291 291 290 290 289 289 288 287 285 284 286 287 289 288 287 285 285 285 283 282 284 285 285 286 291 295 294 293 294 295
Height
10966 10966 10966 10966 10965 10966 10967 10969 10971 10973 10975 10976 10977 10979 10980 10982 10984 10986 10988 10990 10991 10992 10993 10994 10995 10995 10996 10996 10997 10997 10997 10998 10998 10998 10998 10998 10998 10999 10999 10999 11000 11000 11001 11001 11002 11002 11002 11003 11004 11005 11005 11004 11004 11005 11004 11003 11002 11000 10997 10996 10995 10994 10993 10992 10992 10991 10990 10988 10987 10986 10986 10985 10984 10983 10981 10980 10978 10976 10974 10973 10971 10970 10968 10966 10965
10966 10966 10967 10966 10966 10967 10967 10969 10971 10973 10975 10976 10978 10979 10980 10982 10985 10987 10988 10990 10991 10992 10994 10995 10995 10996 10996 10997 10997 10998 10998 10999 10999 10999 10999 10999 10999 10999 11000 11000 11001 11001 11002 11002 11003 11003 11003 11004 11005 11006 11006 11005 11006 11007 11006 11005 11003 11001 10999 10998 10996 10995 10994 10993 10993 10992 10991 10990 10989 10988 10987 10986 10986 10985 10983 10982 10980 10978 10976 10974 10972 10971 10969 10967 10966
10966 10966 10967 10966 10966 10967 10967 10968 10970 10972 10975 10977 10978 10979 10981 10982 10984 10986 10988 10990 10991 10993 10994 10995 10996 10997 10997 10998 10998 10999 10999 10999 11000 11000 11000 11000 11000 11000 11001 11001 11002 11002 11003 11003 11004 11004 11004 11005 11006 11007 11008 11008 11008 11008 11007 11006 11004 11002 11001 10999 10998 10997 10995 10995 10994 10993 10992 10991 10991 10990 10989 10988 10987 10986 10984 10983 10982 10980 10978 10976 10974 10972 10970 10969 10967
10965 10965 10966 10966 10965 10966 10967 10968 10970 10972 10975 10977 10978 10979 10980 10982 10984 10986 10988 10990 10991 10993 10994 10995 10996 10997 10998 10998 10999 10999 11000 11000 11001 11001 11001 11001 11001 11001 11002 11002 11003 11003 11004 11004 11005 11005 11005 11006 11007 11008 11009 11009 11008 11009 11009 11007 11005 11003 11002 11001 10999 10998 10997 10996 10995 10994 10993 10992 10991 10990 10989 10988 10987 10986 10984 10983 10982 10981 10979 10977 10976 10974 10972 10970 10968
10963 10964 10965 10965 10964 10964 10966 10968 10969 10971 10974 10977 10978 10979 10981 10982 10984 10986 10988 10990 10991 10993 10994 10996 10996 10997 10998 10999 10999 11000 11000 11001 11001 11001 11001 11001 11002 11002 11003 11003 11004 11004 11005 11005 11005 11006 11006 11006 11007 11008 11009 11009 11009 11010 11009 11007 11006 11005 11003 11002 11001 10999 10998 10997 10995 10994 10993 10992 10991 10990 10989 10988 10986 10985 10984 10982 10981 10980 10979 10978 10976 10975 10973 10971 10970
10962 10963 10964 10964 10963 10963 10964 10967 10969 10971 10974 10976 10978 10979 10981 10983 10984 10986 10987 10989 10991 10992 10994 10995 10997 10997 10998 10999 11000 11001 11001 11002 11002 11002 11002 11002 11003 11003 11004 11004 11005 11005 11005 11006 11006 11006 11007 11007 11007 11008 11008 11008 11009 11009 11008 11007 11006 11006 11005 11004 11002 11000 10999 10997 10996 10995 10993 10992 10991 10990 10988 10987 10986 10984 10983 10981 10980 10979 10978 10978 10976 10975 10974 10973 10971
10963 10964 10963 10963 10963 10962 10963 10965 10968 10970 10973 10976 10977 10979 10981 10982 10984 10985 10987 10989 10990 10992 10994 10995 10997 10998 10999 11000 11001 11001 11002 11002 11003 11003 11003 11003 11004 11004 11005 11005 11005 11006 11006 11006 11007 11007 11007 11007 11007 11007 11008 11008 11008 11008 11007 11007 11006 11006 11006 11005 11003 11002 11000 10998 10997 10995 10994 10992 10991 10989 10988 10986 10985 10983 10982 10980 10979 10978 10977 10977 10976 10975 10974 10973 10971
10962 10962 10961 10962 10962 10961 10961 10963 10966 10969 10972 10975 10976 10978 10980 10981 10984 10985 10987 10988 10990 10992 10993 10995 10997 10998 10999 11000 11001 11001 11002 11003 11003 11003 11004 11004 11004 11005 11005 11006 11006 11006 11007 11007 11007 11007 11007 11007 11007 11007 11007 11007 11007 11007 11007 11006 11006 11006 11006 11005 11004 11002 11001 10999 10997 10995 10994 10993 10991 10989 10988 10987 10985 10983 10981 10980 10978 10977 10976 10976 10975 10974 10974 10972 10971
10960 10959 10959 10959 10960 10960 10959 10961 10964 10967 10970 10973 10975 10977 10979 10981 10983 10985 10986 10988 10989 10991 10993 10995 10996 10997 10999 11000 11001 11001 11002 11003 11003 11004 11004 11004 11005 11005 11006 11006 11006 11007 11007 11007 11007 11007 11007 11007 11007 11007 11007 11007 11007 11006 11006 11006 11006 11006 11005 11005 11004 11003 11001 10999 10997 10996 10994 10993 10991 10990 10988 10987 10985 10983 10981 10979 10978 10976 10975 10975 10974 10974 10973 10971 10970
10956 10956 10956 10957 10958 10959 10958 10958 10961 10965 10968 10971 10974 10976 10977 10979 10981 10983 10985 10987 10988 10990 10992 10994 10995 10997 10998 10999 11000 11001 11002 11003 11003 11004 11004 11004 11005 11005 11006 11006 11007 11007 11007 11007 11007 11007 11007 11007 11007 11007 11007 11007 11007 11006 11006 11005 11005 11005 11005 11004 11003 11002 11001 10999 10998 10996 10994 10993 10991 10990 10988 10986 10985 10983 10981 10979 10977 10976 10975 10974 10974 10973 10972 10970 10969
10952 10952 10953 10955 10956 10957 10956 10955 10958 10962 10966 10969 10971 10973 10975 10977 10980 10982 10984 10986 10987 10989 10991 10993 10994 10996 10997 10999 11000 11001 11002 11002 11003 11004 11004 11004 11005 11005 11006 11006 11007 11007 11007 11007 11007 11007 11007 11007 11007 11007 11007 11007 11006 11006 11005 11005 11005 11005 11005 11004 11003 11002 11000 10999 10997 10996 10994 10993 10992 10990 10988 10986 10984 10983 10981 10979 10977 10976 10974 10973 10973 10972 10971 10969 10968
10949 10949 10950 10952 10953 10954 10954 10954 10956 10960 10964 10966 10969 10971 10974 10976 10978 10981 10983 10984 10986 10988 10990 10992 10994 10995 10997 10998 10999 11000 11001 11002 11003 11003 11004 11004 11005 11005 11005 11006 11006 11007 11007 11007 11007 11007 11007 11007 11007 11007 11007 11007 11006 11006 11005 11005 11004 11004 11004 11003 11002 11001 11000 10998 10997 10996 10995 10993 10992 10990 10988 10986 10985 10983 10981 10979 10977 10975 10974 10973 10972 10971 10970 10968 10967
10945 10947 10948 10949 10950 10952 10953 10953 10954 10957 10961 10965 10968 10970 10973 10975 10978 10980 10982 10984 10986 10987 10989 10991 10993 10995 10996 10997 10998 10999 11000 11001 11002 11003 11003 11004 11005 11005 11005 11006 11006 11006 11007 11007 11006 11007 11007 11007 11007 11007 11007 11007 11006 11006 11005 11004 11004 11003 11003 11002 11001 11000 10999 10998 10997 10996 10995 10993 10992 10990 10988 10986 10984 10983 10981 10979 10977 10975 10974 10972 10971 10970 10969 10967 10966
10942 10944 10945 10946 10948 10950 10952 10952 10953 10955 10959 10963 10967 10969 10972 10975 10977 10979 10982 10984 10985 10987 10989 10990 10992 10994 10995 10995 10997 10998 10999 11000 11001 11002 11003 11003 11004 11005 11005 11006 11006 11006 11006 11006 11006 11006 11006 11006 11007 11007 11006 11006 11006 11005 11004 11004 11003 11003 11002 11001 11001 11000 10998 10997 10996 10995 10994 10992 10991 10989 10988 10986 10984 10982 10980 10978 10976 10975 10973 10972 10970 10969 10968 10966 10965
10940 10941 10942 10943 10946 10948 10950 10951 10951 10953 10956 10959 10963 10967 10970 10973 10976 10978 10980 10982 10984 10986 10988 10989 10991 10993 10994 10995 10996 10997 10997 10999 11000 11001 11001 11002 11003 11004 11004 11005 11005 11006 11006 11006 11006 11006 11006 11006 11006 11006 11006 11006 11005 11004 11004 11003 11002 11002 11001 11000 11000 10999 10997 10996 10995 10994 10993 10992 10990 10989 10987 10985 10983 10982 10980 10978 10976 10974 10972 10971 10969 10968 10967 10965 10964
10938 10939 10940 10941 10942 10944 10947 10948 10949 10951 10953 10956 10959 10963 10967 10970 10973 10975 10978 10980 10983 10985 10986 10988 10990 10991 10992 10994 10995 10996 10996 10997 10998 10999 11000 11001 11002 11002 11003 11003 11004 11004 11005 11005 11005 11005 11005 11004 11004 11005 11005 11004 11004 11003 11003 11002 11002 11001 11000 10999 10998 10997 10996 10995 10994 10993 10992 10990 10989 10987 10986 10984 10983 10981 10979 10977 10976 10974 10972 10970 10968 10967 10965 10964 10962
10935 10935 10937 10939 10940 10941 10944 10945 10946 10947 10950 10952 10955 10960 10964 10967 10970 10973 10976 10979 10981 10983 10985 10986 10988 10989 10991 10992 10994 10995 10995 10996 10997 10998 10998 10999 11000 11001 11001 11002 11002 11003 11003 11003 11003 11003 11003 11003 11003 11003 11003 11003 11003 11002 11002 11001 11001 11000 10999 10998 10996 10996 10995 10994 10992 10991 10990 10989 10987 10986 10984 10983 10981 10980 10978 10976 10974 10973 10971 10969 10967 10965 10964 10962 10960
10934 10935 10936 10937 10937 10939 10941 10943 10943 10945 10947 10949 10953 10957 10961 10965 10969 10972 10974 10977 10979 10982 10983 10985 10986 10987 10989 10991 10992 10993 10994 10995 10995 10996 10997 10998 10998 10999 10999 11000 11000 11000 11001 11001 11001 11001 11002 11002 11001 11001 11001 11001 11001 11000 11000 10999 10999 10998 10997 10996 10995 10994 10993 10992 10991 10989 10988 10987 10985 10984 10982 10981 10979 10978 10976 10974 10973 10971 10969 10968 10966 10964 10962 10960 10958
10933 10934 10935 10935 10935 10936 10939 10940 10941 10943 10946 10949 10952 10955 10958 10962 10966 10969 10971 10974 10977 10979 10981 10982 10983 10985 10987 10988 10990 10991 10992 10993 10993 10994 10995 10996 10997 10997 10997 10998 10998 10998 10999 10999 10999 10999 10999 10999 10999 10999 10999 10999 10999 10998 10998 10997 10997 10996 10996 10995 10993 10992 10991 10990 10989 10988 10986 10985 10983 10982 10980 10979 10977 10976 10974 10973 10971 10969 10968 10966 10964 10963 10961 10959 10956
10930 10931 10931 10931 10933 10935 10937 10939 10941 10942 10945 10948 10951 10953 10956 10960 10962 10965 10968 10971 10973 10975 10977 10979 10981 10983 10985 10986 10988 10989 10990 10991 10991 10992 10993 10994 10995 10995 10995 10996 10996 10996 10997 10997 10997 10997 10997 10997 10997 10997 10997 10996 10996 10996 10995 10995 10994 10994 10994 10993 10992 10990 10989 10988 10987 10986 10984 10983 10981 10980 10978 10977 10975 10974 10972 10970 10969 10967 10966 10964 10963 10961 10959 10957 10955
10926 10928 10929 10930 10933 10934 10936 10939 10941 10943 10946 10948 10950 10952 10954 10957 10960 10962 10964 10967 10968 10971 10973 10975 10977 10980 10982 10983 10985 10986 10987 10988 10988 10989 10991 10992 10992 10993 10993 10993 10993 10993 10994 10995 10995 10995 10995 10995 10994 10994 10994 10994 10994 10993 10993 10992 10992 10992 10991 10991 10990 10988 10987 10986 10985 10984 10982 10980 10979 10977 10976 10974 10972 10971 10969 10968 10966 10964 10963 10961 10960 10958 10957 10955 10953
10923 10926 10929 10931 10932 10933 10935 10938 10940 10943 10946 10947 10949 10951 10953 10955 10957 10959 10962 10963 10965 10968 10970 10972 10974 10976 10978 10979 10981 10982 10983 10985 10985 10987 10988 10989 10990 10990 10990 10990 10990 10991 10991 10992 10993 10993 10993 10992 10992 10991 10991 10991 10991 10990 10990 10989 10989 10989 10988 10988 10987 10986 10985 10983 10982 10981 10980 10978 10977 10975 10973 10972 10970 10968 10966 10965 10963 10961 10959 10958 10956 10955 10954 10952 10950
10920 10924 10926 10928 10930 10932 10934 10936 10938 10941 10944 10946 10948 10949 10951 10953 10955 10957 10959 10961 10964 10966 10968 10971 10972 10973 10975 10977 10978 10979 10980 10981 10982 10983 10985 10986 10987 10987 10987 10987 10987 10988 10988 10989 10990 10990 10990 10990 10990 10989 10988 10988 10988 10987 10987 10986 10986 10986 10985 10985 10984 10983 10982 10981 10979 10978 10977 10976 10974 10972 10971 10969 10967 10965 10963 10962 10960 10958 10956 10954 10953 10951 10950 10948 10947
10917 10921 10923 10924 10927 10929 10931 10933 10935 10938 10940 10943 10945 10947 10949 10951 10953 10956 10957 10960 10963 10965 10967 10969 10970 10971 10973 10974 10974 10975 10977 10978 10978 10980 10982 10983 10983 10983 10984 10984 10984 10985 10985 10986 10986 10987 10987 10987 10987 10987 10986 10985 10984 10984 10983 10983 10983 10983 10982 10982 10981 10980 10979 10978 10976 10975 10974 10973 10971 10969 10967 10966 10964 10962 10960 10959 10957 10955 10953 10951 10950 10948 10946 10944 10943
10914 10917 10918 10919 10921 10923 10925 10928 10931 10933 10936 10939 10941 10943 10946 10948 10951 10953 10955 10958 10961 10963 10964 10966 10967 10969 10970 10970 10971 10972 10973 10975 10976 10978 10979 10979 10979 10979 10980 10981 10981 10982 10982 10983 10983 10984 10984 10984 10984 10984 10983 10982 10981 10981 10980 10979 10979 10979 10979 10978 10977 10976 10976 10975 10973 10972 10970 10969 10967 10966 10964 10962 10961 10959 10957 10955 10953 10952 10950 10948 10946 10945 10943 10940 10938
10908 10910 10912 10914 10915 10916 10919 10922 10925 10928 10931 10934 10937 10940 10942 10944 10947 10949 10952 10955 10957 10959 10960 10962 10964 10965 10965 10966 10967 10969 10970 10972 10974 10976 10976 10976 10976 10976 10977 10978 10978 10979 10979 10980 10980 10981 10981 10982 10982 10981 10980 10979 10978 10977 10976 10975 10975 10975 10975 10975 10974 10972 10972 10971 10969 10968 10966 10965 10963 10962 10960 10958 10957 10955 10953 10952 10950 10948 10946 10944 10942 10941 10939 10937 10934
10901 10904 10907 10909 10911 10913 10915 10918 10921 10923 10926 10929 10931 10934 10937 10940 10942 10945 10947 10950 10952 10954 10956 10958 10960 10961 10961 10962 10964 10966 10968 10970 10972 10973 10973 10973 10973 10973 10974 10975 10976 10976 10977 10977 10978 10978 10978 10978 10978 10978 10977 10976 10975 10974 10972 10971 10971 10971 10971 10971 10970 10968 10968 10967 10966 10964 10962 10960 10959 10958 10956 10954 10952 10951 10949 10948 10946 10944 10942 10940 10939 10937 10935 10933 10930
10896 10900 10903 10905 10907 10910 10913 10916 10919 10921 10923 10925 10927 10930 10933 10935 10938 10941 10943 10946 10948 10951 10952 10954 10956 10957 10957 10958 10961 10963 10965 10967 10969 10969 10970 10970 10970 10971 10972 10972 10973 10973 10974 10974 10975 10975 10975 10975 10975 10975 10974 10972 10971 10970 10969 10968 10968 10967 10967 10966 10966 10964 10963 10962 10961 10960 10958 10956 10954 10953 10951 10949 10948 10947 10946 10944 10942 10940 10938 10936 10934 10932 10930 10928 10926
10895 10898 10900 10902 10904 10907 10911 10914 10917 10919 10921 10923 10925 10928 10930 10933 10936 10938 10940 10943 10945 10947 10948 10950 10952 10953 10954 10956 10959 10961 10962 10963 10965 10966 10966 10967 10967 10968 10968 10969 10969 10970 10970 10971 10971 10972 10971 10971 10971 10970 10969 10968 10967 10966 10965 10964 10964 10964 10963 10962 10961 10960 10959 10958 10957 10955 10953 10951 10949 10948 10946 10944 10942 10941 10941 10940 10937 10935 10933 10931 10929 10927 10925 10923 10921
10893 10894 10896 10899 10902 10906 10909 10911 10913 10916 10918 10921 10923 10925 10928 10930 10933 10935 10937 10939 10941 10943 10944 10946 10948 10949 10950 10953 10956 10957 10958 10959 10960 10961 10962 10963 10963 10963 10964 10964 10965 10965 10966 10967 10967 10967 10967 10967 10967 10966 10965 10964 10963 10962 10961 10960 10960 10959 10959 10958 10956 10955 10954 10953 10951 10950 10948 10945 10943 10942 10941 10939 10937 10935 10934 10934 10932 10930 10927 10925 10923 10921 10920 10918 10916
10885 10886 10889 10893 10897 10901 10904 10906 10908 10910 10912 10915 10918 10920 10923 10926 10928 10930 10933 10935 10937 10938 10940 10941 10943 10945 10947 10949 10950 10952 10953 10954 10955 10956 10957 10957 10958 10958 10959 10959 10960 10961 10962 10963 10963 10962 10962 10963 10963 10962 10961 10960 10959 10958 10957 10956 10955 10955 10954 10953 10952 10950 10949 10947 10945 10944 10942 10940 10938 10936 10934 10933 10931 10928 10927 10927 10926 10924 10921 10919 10917 10914 10913 10913 10911
10878 10880 10883 10887 10891 10894 10897 10899 10902 10904 10906 10909 10912 10915 10918 10920 10922 10925 10928 10931 10932 10933 10935 10937 10938 10941 10943 10944 10945 10947 10948 10949 10950 10951 10951 10953 10954 10954 10955 10955 10956 10957 10958 10959 10958 10958 10958 10958 10958 10957 10957 10955 10954 10953 10952 10951 10951 10950 10950 10948 10947 10945 10943 10941 10939 10937 10936 10934 10932 10930 10928 10926 10924 10922 10920 10920 10919 10917 10915 10913 10911 10907 10905 10906 10906
10872 10874 10878 10881 10886 10889 10892 10894 10897 10899 10901 10904 10907 10910 10912 10915 10919 10922 10924 10926 10927 10929 10930 10932 10934 10935 10937 10938 10940 10942 10943 10944 10945 10946 10947 10949 10950 10950 10951 10951 10952 10953 10953 10954 10954 10954 10954 10953 10953 10952 10952 10950 10948 10947 10946 10946 10945 10945 10944 10943 10941 10938 10936 10934 10932 10930 10929 10927 10925 10923 10921 10919 10917 10915 10913 10913 10912 10910 10908 10906 10904 10901 10898 10898 10898
10865 10868 10872 10876 10880 10883 10886 10889 10892 10894 10897 10900 10903 10905 10908 10912 10915 10917 10918 10920 10922 10924 10926 10927 10928 10930 10931 10933 10935 10936 10938 10940 10941 10943 10943 10944 10944 10945 10946 10946 10947 10948 10948 10948 10948 10948 10948 10948 10947 10947 10945 10944 10943 10942 10941 10940 10939 10939 10938 10937 10935 10932 10930 10928 10926 10924 10922 10920 10918 10916 10914 10912 10911 10908 10906 10905 10905 10903 10901 10900 10898 10895 10892 10890 10890
10861 10864 10868 10871 10874 10877 10880 10884 10887 10889 10892 10895 10898 10901 10904 10908 10910 10911 10913 10915 10917 10919 10920 10922 10923 10925 10926 10928 10930 10932 10934 10935 10937 10938 10937 10937 10938 10939 10940 10941 10942 10942 10942 10942 10942 10943 10942 10942 10941 10940 10939 10937 10936 10935 10934 10933 10932 10932 10932 10932 10930 10926 10923 10920 10918 10917 10915 10913 10911 10909 10907 10905 10904 10902 10898 10897 10899 10897 10894 10893 10893 10890 10887 10885 10882
10859 10861 10864 10866 10869 10872 10876 10879 10882 10885 10887 10890 10893 10897 10900 10903 10905 10906 10909 10911 10913 10914 10915 10917 10918 10919 10921 10923 10925 10927 10928 10929 10930 10931 10930 10931 10932 10933 10935 10936 10936 10936 10936 10936 10937 10937 10937 10936 10935 10934 10933 10931 10929 10928 10926 10924 10924 10924 10925 10924 10923 10921 10917 10913 10911 10909 10908 10906 10904 10902 10900 10898 10897 10895 10891 10889 10892 10893 10888 10886 10887 10885 10882 10879 10876
10856 10858 10860 10863 10865 10868 10871 10874 10877 10880 10883 10886 10889 10893 10895 10898 10900 10902 10904 10906 10908 10909 10910 10911 10912 10915 10917 10918 10920 10921 10921 10922 10923 10923 10924 10925 10926 10928 10929 10930 10930 10930 10930 10931 10931 10931 10931 10930 10929 10928 10927 10925 10922 10920 10918 10917 10916 10916 10917 10917 10916 10915 10913 10908 10904 10903 10902 10900 10898 10895 10894 10891 10889 10889 10886 10882 10885 10888 10884 10880 10880 10880 10877 10874 10871
10853 10855 10858 10860 10862 10864 10867 10870 10873 10876 10879 10882 10885 10888 10891 10893 10895 10897 10899 10902 10903 10904 10906 10907 10908 10910 10911 10912 10913 10914 10915 10916 10917 10917 10918 10920 10921 10922 10923 10923 10924 10924 10924 10924 10925 10925 10925 10924 10923 10922 10921 10919 10917 10915 10912 10910 10909 10908 10908 10909 10909 10909 10908 10904 10900 10898 10896 10894 10892 10889 10887 10885 10883 10883 10881 10877 10877 10881 10880 10876 10874 10874 10872 10870 10868
10850 10853 10855 10857 10859 10862 10865 10867 10870 10872 10875 10878 10881 10884 10886 10888 10890 10892 10894 10896 10898 10899 10901 10902 10903 10904 10905 10906 10908 10909 10910 10911 10911 10911 10912 10913 10914 10915 10916 10917 10917 10917 10918 10918 10918 10918 10918 10917 10917 10916 10915 10913 10911 10910 10908 10905 10903 10901 10901 10901 10901 10902 10901 10899 10897 10895 10892 10889 10887 10884 10882 10880 10879 10880 10877 10871 10871 10874 10874 10872 10870 10868 10867 10866 10864
10847 10849 10851 10853 10856 10859 10862 10864 10867 10869 10872 10875 10877 10879 10881 10883 10885 10887 10888 10890 10892 10894 10896 10897 10898 10898 10899 10900 10902 10903 10904 10905 10905 10905 10906 10906 10907 10908 10909 10910 10911 10911 10911 10911 10911 10912 10911 10910 10910 10909 10908 10907 10905 10904 10903 10901 10898 10897 10895 10895 10895 10894 10894 10894 10894 10892 10888 10884 10882 10880 10878 10874 10873 10875 10873 10867 10866 10868 10868 10867 10865 10863 10863 10862 10860
10843 10845 10847 10850 10852 10855 10858 10860 10863 10866 10868 10871 10873 10875 10877 10879 10880 10882 10883 10885 10888 10889 10890 10892 10893 10893 10894 10895 10896 10897 10898 10899 10900 10901 10901 10901 10902 10903 10903 10904 10904 10905 10906 10905 10905 10906 10905 10904 10904 10903 10902 10901 10899 10898 10898 10895 10893 10892 10891 10889 10889 10888 10887 10888 10889 10887 10883 10881 10878 10876 10874 10869 10866 10868 10869 10864 10862 10862 10863 10863 10861 10859 10859 10858 10856
10839 10841 10843 10847 10848 10850 10853 10856 10859 10862 10864 10867 10869 10871 10873 10874 10876 10878 10879 10881 10884 10885 10886 10887 10888 10889 10890 10891 10892 10893 10893 10894 10895 10896 10897 10897 10897 10898 10899 10899 10899 10900 10900 10900 10899 10900 10900 10899 10898 10897 10896 10895 10894 10893 10892 10889 10886 10885 10884 10883 10883 10882 10881 10882 10883 10881 10878 10875 10873 10871 10870 10866 10862 10861 10862 10860 10857 10857 10858 10858 10857 10856 10855 10854 10852
10834 10837 10840 10842 10844 10847 10849 10851 10855 10858 10860 10862 10864 10866 10868 10870 10871 10873 10875 10877 10879 10880 10881 10882 10883 10884 10886 10886 10887 10888 10889 10890 10891 10891 10892 10893 10893 10893 10894 10894 10895 10895 10896 10895 10895 10894 10894 10894 10893 10893 10892 10890 10889 10888 10888 10884 10879 10877 10876 10876 10876 10875 10875 10875 10876 10875 10871 10869 10867 10866 10865 10863 10858 10856 10855 10853 10852 10852 10853 10853 10853 10852 10851 10850 10848
10829 10832 10834 10837 10840 10843 10845 10848 10850 10852 10854 10857 10858 10860 10862 10864 10865 10867 10869 10871 10873 10874 10876 10877 10878 10879 10880 10881 10882 10883 10884 10885 10886 10887 10887 10887 10887 10888 10889 10889 10889 10890 10891 10891 10890 10889 10890 10889 10889 10888 10887 10885 10884 10884 10883 10880 10874 10870 10869 10869 10868 10868 10867 10867 10867 10866 10863 10861 10860 10860 10860 10859 10855 10852 10849 10847 10847 10847 10847 10848 10849 10847 10846 10844 10843
10824 10827 10830 10833 10836 10839 10841 10843 10845 10846 10849 10851 10852 10854 10856 10857 10859 10861 10863 10865 10867 10868 10870 10871 10872 10873 10874 10875 10877 10877 10878 10879 10880 10881 10881 10881 10881 10882 10883 10883 10883 10884 10885 10885 10884 10884 10884 10884 10884 10883 10881 10880 10879 10878 10877 10875 10870 10866 10864 10863 10861 10860 10860 10860 10860 10858 10854 10853 10853 10854 10854 10853 10850 10846 10843 10842 10841 10842 10841 10842 10842 10842 10840 10838 10836
10819 10822 10824 10828 10831 10833 10835 10837 10839 10841 10843 10845 10847 10849 10850 10851 10853 10856 10857 10859 10861 10862 10863 10864 10866 10867 10868 10869 10870 10871 10871 10872 10873 10874 10875 10875 10875 10876 10877 10877 10877 10877 10878 10878 10878 10878 10878 10878 10877 10876 10875 10874 10874 10872 10871 10869 10866 10862 10859 10857 10855 10854 10853 10853 10853 10850 10846 10844 10846 10847 10847 10847 10844 10841 10839 10837 10835 10834 10834 10835 10836 10835 10834 10832 10830
10813 10816 10819 10823 10826 10827 10830 10832 10833 10835 10837 10839 10841 10843 10844 10846 10848 10850 10851 10853 10854 10855 10857 10858 10859 10860 10861 10863 10864 10864 10864 10865 10866 10868 10868 10868 10869 10870 10870 10870 10870 10870 10870 10870 10871 10871 10871 10871 10871 10870 10869 10868 10867 10866 10864 10863 10861 10858 10854 10852 10850 10848 10846 10846 10845 10843 10839 10837 10838 10840 10840 10839 10837 10833 10830 10829 10829 10828 10827 10828 10829 10827 10826 10825 10824
10806 10810 10814 10817 10819 10821 10824 10826 10828 10830 10832 10833 10835 10837 10838 10840 10842 10843 10845 10847 10848 10849 10850 10851 10852 10854 10855 10856 10856 10857 10857 10857 10859 10860 10861 10861 10862 10862 10863 10863 10863 10863 10863 10863 10864 10864 10864 10864 10864 10864 10863 10862 10861 10860 10857 10856 10856 10854 10850 10847 10845 10843 10841 10839 10838 10834 10831 10830 10832 10832 10831 10830 10828 10825 10822 10822 10824 10824 10822 10821 10822 10821 10820 10819 10817
10798 10802 10805 10809 10812 10815 10818 10820 10822 10824 10826 10828 10829 10831 10833 10834 10836 10837 10839 10840 10841 10842 10843 10844 10846 10847 10848 10848 10849 10850 10850 10851 10852 10853 10854 10855 10855 10855 10856 10856 10856 10856 10856 10856 10857 10857 10856 10857 10857 10857 10856 10856 10855 10853 10851 10849 10849 10848 10844 10841 10840 10838 10836 10834 10831 10826 10824 10824 10825 10825 10824 10821 10819 10819 10818 10817 10817 10817 10816 10815 10815 10815 10815 10814 10812
10790 10793 10796 10800 10804 10808 10811 10813 10815 10817 10819 10821 10823 10825 10827 10828 10829 10831 10832 10833 10834 10835 10836 10838 10839 10840 10841 10841 10842 10843 10843 10844 10845 10846 10846 10848 10848 10848 10849 10849 10849 10849 10849 10849 10849 10849 10848 10848 10849 10849 10848 10848 10847 10845 10843 10841 10840 10840 10838 10835 10832 10830 10828 10827 10823 10819 10817 10818 10819 10819 10818 10813 10812 10815 10815 10811 10809 10809 10809 10810 10810 10809 10809 10809 10807
10783 10785 10788 10791 10795 10800 10803 10806 10808 10810 10813 10815 10817 10819 10821 10822 10823 10823 10824 10825 10826 10828 10829 10831 10832 10833 10834 10834 10835 10836 10836 10836 10838 10839 10839 10840 10840 10840 10841 10841 10841 10841 10842 10841 10841 10840 10839 10839 10840 10841 10840 10839 10838 10836 10835 10833 10831 10830 10829 10827 10824 10822 10820 10817 10813 10810 10811 10812 10813 10813 10811 10809 10808 10808 10804 10800 10801 10802 10802 10804 10805 10804 10804 10804 10801